User: anonymous   Login
Location: Castle
(40.7167°S, 175.9500°E)
Time: 16:56:28
(UTC+00:00)
Language:

Cosmos 1844 Rocket - Orbit

View from above orbital plane
View from above orbital plane
View from above satellite
View from above satellite

Ground track
Ground track

The orbit data is extracted from the following two-line orbital elements,

1 17974U 87041B   24284.56098704  .00000198  00000-0  12116-3 0  9999
2 17974  71.0101  38.7865 0016231 271.9519 167.9946 14.17504838935329
Epoch (UTC): 10 October 2024 13:27:49
Eccentricity: 0.0016231
inclination: 71.0101°
perigee height: 822 km
apogee height: 845 km
right ascension of ascending node: 38.7865°
argument of perigee: 271.9519°
revolutions per day: 14.17504838
mean anomaly at epoch: 167.9946°
orbit number at epoch: 93532

The dashed part of the orbit path shows where the satellite is in the earth's shadow,  

DLR